JST406 YMML-YMHB

Flight info

Callsign JST406
Flight time 0h 59m
Altitude 35000
Route SUNTI4/27 SUNTI H169 IRSOM V33 TASUM
Aircraft A320/M-SDE3FGHIRWY/LB1

Departure

Time 2026-05-05 13:13
Airport Melbourne Airport (YMML)

Arrival

Time 2026-05-05 14:13
Airport Hobart International Airport (YMHB)
Time Latitude Longitude Altitude Speed Heading
2026-05-05 12:35 -37.67353 144.84629 386 ft 0 kts 352°
2026-05-05 13:01 -37.67386 144.84635 384 ft 3 kts 352°
2026-05-05 13:01 -37.67405 144.84638 384 ft 3 kts 333°
2026-05-05 13:01 -37.67419 144.84652 383 ft 3 kts 296°
2026-05-05 13:01 -37.67425 144.84673 383 ft 2 kts 284°
2026-05-05 13:02 -37.67427 144.84680 383 ft 0 kts 277°
2026-05-05 13:02 -37.67427 144.84681 383 ft 0 kts 277°
2026-05-05 13:07 -37.67427 144.84680 383 ft 1 kts 277°
2026-05-05 13:08 -37.67426 144.84668 383 ft 1 kts 270°
2026-05-05 13:08 -37.67433 144.84645 383 ft 5 kts 236°
2026-05-05 13:08 -37.67451 144.84586 381 ft 9 kts 262°
2026-05-05 13:08 -37.67463 144.84487 379 ft 14 kts 261°
2026-05-05 13:09 -37.67472 144.84352 377 ft 17 kts 285°
2026-05-05 13:09 -37.67371 144.84301 380 ft 16 kts 350°
2026-05-05 13:09 -37.67262 144.84281 384 ft 16 kts 351°
2026-05-05 13:09 -37.67157 144.84261 387 ft 15 kts 352°
2026-05-05 13:10 -37.67053 144.84242 391 ft 15 kts 348°
2026-05-05 13:10 -37.66954 144.84224 391 ft 14 kts 351°
2026-05-05 13:10 -37.66858 144.84206 398 ft 14 kts 352°
2026-05-05 13:10 -37.66765 144.84189 401 ft 13 kts 349°
2026-05-05 13:11 -37.66675 144.84173 401 ft 13 kts 351°
2026-05-05 13:11 -37.66589 144.84156 408 ft 12 kts 351°
2026-05-05 13:11 -37.66503 144.84140 410 ft 12 kts 352°
2026-05-05 13:11 -37.66418 144.84123 411 ft 13 kts 352°
2026-05-05 13:12 -37.66327 144.84106 414 ft 14 kts 350°
2026-05-05 13:12 -37.66224 144.84086 413 ft 16 kts 351°
2026-05-05 13:12 -37.66176 144.83957 413 ft 25 kts 274°
2026-05-05 13:12 -37.66142 144.83408 415 ft 104 kts 274°
2026-05-05 13:13 -37.66070 144.82212 506 ft 159 kts 274°
2026-05-05 13:13 -37.66008 144.80831 1329 ft 158 kts 274°
2026-05-05 13:13 -37.65933 144.79441 2252 ft 158 kts 274°
2026-05-05 13:13 -37.65848 144.78046 2739 ft 167 kts 275°
2026-05-05 13:14 -37.65751 144.76489 2963 ft 189 kts 275°
2026-05-05 13:14 -37.65642 144.74730 3189 ft 213 kts 274°
2026-05-05 13:14 -37.65522 144.72755 3504 ft 238 kts 274°
2026-05-05 13:14 -37.65561 144.70594 4025 ft 255 kts 255°
2026-05-05 13:15 -37.66479 144.68679 4814 ft 262 kts 221°
2026-05-05 13:15 -37.67998 144.67367 5667 ft 266 kts 213°
2026-05-05 13:15 -37.69583 144.66127 6512 ft 270 kts 213°
2026-05-05 13:15 -37.71217 144.64908 7308 ft 275 kts 207°
2026-05-05 13:16 -37.73065 144.64223 8095 ft 281 kts 187°
2026-05-05 13:16 -37.75032 144.64350 8881 ft 287 kts 168°
2026-05-05 13:16 -37.76899 144.65308 9670 ft 293 kts 151°
2026-05-05 13:16 -37.78661 144.66633 10419 ft 297 kts 150°
2026-05-05 13:17 -37.80494 144.68010 10721 ft 317 kts 150°
2026-05-05 13:17 -37.82457 144.69482 10977 ft 336 kts 150°
2026-05-05 13:17 -37.84465 144.70990 11529 ft 343 kts 150°
2026-05-05 13:17 -37.86531 144.72546 12173 ft 347 kts 150°
2026-05-05 13:18 -37.88621 144.74120 12831 ft 351 kts 150°
2026-05-05 13:18 -37.90731 144.75707 13492 ft 355 kts 150°
2026-05-05 13:18 -37.92865 144.77322 14142 ft 359 kts 150°
2026-05-05 13:18 -37.95019 144.78951 14713 ft 363 kts 150°
2026-05-05 13:19 -37.97199 144.80597 15295 ft 366 kts 150°
2026-05-05 13:19 -37.98658 144.81697 15686 ft 368 kts 150°
2026-05-05 13:19 -38.01597 144.83913 16450 ft 371 kts 151°
2026-05-05 13:19 -38.03834 144.85596 17037 ft 374 kts 151°
2026-05-05 13:20 -38.06082 144.87288 17617 ft 377 kts 151°
2026-05-05 13:20 -38.08351 144.89001 18204 ft 380 kts 150°
2026-05-05 13:20 -38.09863 144.90142 18586 ft 382 kts 151°
2026-05-05 13:20 -38.12158 144.91878 19104 ft 385 kts 150°
2026-05-05 13:21 -38.15251 144.94223 19817 ft 389 kts 150°
2026-05-05 13:21 -38.16791 144.95392 20184 ft 391 kts 150°
2026-05-05 13:21 -38.19139 144.97174 20725 ft 394 kts 150°
2026-05-05 13:21 -38.22278 144.99565 21419 ft 397 kts 150°
2026-05-05 13:22 -38.23862 145.00775 21764 ft 399 kts 150°
2026-05-05 13:22 -38.26255 145.02602 22257 ft 402 kts 150°
2026-05-05 13:22 -38.28659 145.04439 22781 ft 405 kts 150°
2026-05-05 13:22 -38.31082 145.06286 23290 ft 408 kts 151°
2026-05-05 13:23 -38.33530 145.08151 23783 ft 410 kts 151°
2026-05-05 13:23 -38.35986 145.10023 24193 ft 413 kts 151°
2026-05-05 13:23 -38.38464 145.11913 24610 ft 416 kts 151°
2026-05-05 13:23 -38.40953 145.13812 25004 ft 418 kts 151°
2026-05-05 13:24 -38.43456 145.15725 25384 ft 421 kts 151°
2026-05-05 13:24 -38.45971 145.17658 25768 ft 423 kts 151°
2026-05-05 13:24 -38.48505 145.19605 26149 ft 426 kts 151°
2026-05-05 13:24 -38.51108 145.21401 26519 ft 426 kts 159°
2026-05-05 13:25 -38.53894 145.22718 26882 ft 427 kts 163°
2026-05-05 13:25 -38.56675 145.23930 27239 ft 429 kts 163°
2026-05-05 13:25 -38.59508 145.25173 27589 ft 432 kts 163°
2026-05-05 13:25 -38.62365 145.26430 27944 ft 434 kts 163°
2026-05-05 13:26 -38.65226 145.27697 28290 ft 436 kts 163°
2026-05-05 13:26 -38.68105 145.28970 28636 ft 439 kts 163°
2026-05-05 13:26 -38.70997 145.30247 28984 ft 441 kts 163°
2026-05-05 13:26 -38.73906 145.31530 29323 ft 443 kts 163°
2026-05-05 13:27 -38.76823 145.32824 29665 ft 445 kts 163°
2026-05-05 13:27 -38.79761 145.34127 30001 ft 448 kts 163°
2026-05-05 13:27 -38.82714 145.35436 30322 ft 450 kts 163°
2026-05-05 13:27 -38.85682 145.36752 30593 ft 452 kts 163°
2026-05-05 13:28 -38.88657 145.38071 30952 ft 452 kts 163°
2026-05-05 13:28 -38.91627 145.39388 31344 ft 451 kts 163°
2026-05-05 13:28 -38.94594 145.40701 31731 ft 451 kts 163°
2026-05-05 13:28 -38.97557 145.42014 32116 ft 450 kts 164°
2026-05-05 13:29 -39.00521 145.43334 32505 ft 450 kts 164°
2026-05-05 13:29 -39.03483 145.44657 32883 ft 450 kts 164°
2026-05-05 13:29 -39.06401 145.45958 33262 ft 450 kts 164°
2026-05-05 13:29 -39.09356 145.47278 33650 ft 449 kts 164°
2026-05-05 13:30 -39.12307 145.48599 34044 ft 449 kts 164°
2026-05-05 13:30 -39.15260 145.49923 34388 ft 449 kts 164°
2026-05-05 13:30 -39.18205 145.51246 34700 ft 448 kts 164°
2026-05-05 13:30 -39.21151 145.52569 34998 ft 448 kts 164°
2026-05-05 13:31 -39.24096 145.53888 35168 ft 449 kts 164°
2026-05-05 13:31 -39.27053 145.55211 35205 ft 449 kts 164°
2026-05-05 13:31 -39.32953 145.57860 35199 ft 449 kts 164°
2026-05-05 13:32 -39.38851 145.60519 35189 ft 449 kts 164°
2026-05-05 13:32 -39.44748 145.63182 35194 ft 449 kts 165°
2026-05-05 13:33 -39.50642 145.65844 35193 ft 449 kts 165°
2026-05-05 13:33 -39.56539 145.68500 35187 ft 449 kts 165°
2026-05-05 13:34 -39.62440 145.71171 35186 ft 449 kts 165°
2026-05-05 13:34 -39.68295 145.73836 35180 ft 449 kts 165°
2026-05-05 13:35 -39.74233 145.76529 35178 ft 449 kts 165°
2026-05-05 13:35 -39.80093 145.79199 35176 ft 449 kts 165°
2026-05-05 13:36 -39.85996 145.81904 35173 ft 450 kts 165°
2026-05-05 13:36 -39.91900 145.84612 35172 ft 450 kts 165°
2026-05-05 13:37 -39.97800 145.87318 35168 ft 450 kts 165°
2026-05-05 13:37 -40.03708 145.90023 35166 ft 450 kts 165°
2026-05-05 13:38 -40.09612 145.92761 35168 ft 450 kts 165°
2026-05-05 13:38 -40.15515 145.95518 35158 ft 450 kts 165°
2026-05-05 13:39 -40.21419 145.98271 35153 ft 450 kts 165°
2026-05-05 13:39 -40.27324 146.01019 35154 ft 450 kts 165°
2026-05-05 13:40 -40.33233 146.03768 35151 ft 451 kts 165°
2026-05-05 13:40 -40.39142 146.06518 35150 ft 451 kts 165°
2026-05-05 13:41 -40.45051 146.09293 35146 ft 451 kts 165°
2026-05-05 13:41 -40.50961 146.12072 35145 ft 451 kts 165°
2026-05-05 13:42 -40.56839 146.14834 35143 ft 451 kts 165°
2026-05-05 13:42 -40.62752 146.17621 35141 ft 452 kts 165°
2026-05-05 13:43 -40.68709 146.20441 35137 ft 452 kts 165°
2026-05-05 13:43 -40.74589 146.23213 35135 ft 452 kts 165°
2026-05-05 13:44 -40.80514 146.26012 35131 ft 452 kts 165°
2026-05-05 13:44 -40.86433 146.28830 35128 ft 453 kts 165°
2026-05-05 13:45 -40.92358 146.31654 35130 ft 453 kts 165°
2026-05-05 13:45 -40.98284 146.34479 35126 ft 453 kts 165°
2026-05-05 13:46 -41.04220 146.37310 35126 ft 453 kts 165°
2026-05-05 13:46 -41.10149 146.40136 35090 ft 452 kts 165°
2026-05-05 13:47 -41.13120 146.41556 34198 ft 458 kts 165°
2026-05-05 13:47 -41.16094 146.42987 33573 ft 447 kts 165°
2026-05-05 13:47 -41.18909 146.44623 33112 ft 435 kts 160°
2026-05-05 13:47 -41.21608 146.46335 32661 ft 422 kts 160°
2026-05-05 13:48 -41.24227 146.47993 32206 ft 410 kts 160°
2026-05-05 13:48 -41.26740 146.49579 31762 ft 400 kts 161°
2026-05-05 13:48 -41.29246 146.51153 31138 ft 396 kts 161°
2026-05-05 13:48 -41.31727 146.52708 30535 ft 392 kts 161°
2026-05-05 13:49 -41.34186 146.54252 29897 ft 388 kts 161°
2026-05-05 13:49 -41.36616 146.55786 29211 ft 385 kts 161°
2026-05-05 13:49 -41.39018 146.57310 28638 ft 382 kts 161°
2026-05-05 13:49 -41.41390 146.58817 28543 ft 374 kts 161°
2026-05-05 13:50 -41.46108 146.61800 28370 ft 377 kts 161°
2026-05-05 13:50 -41.48493 146.63307 28190 ft 378 kts 161°
2026-05-05 13:50 -41.50871 146.64814 27832 ft 376 kts 161°
2026-05-05 13:51 -41.53196 146.66295 27466 ft 374 kts 161°
2026-05-05 13:51 -41.55538 146.67790 27100 ft 372 kts 161°
2026-05-05 13:51 -41.57876 146.69285 26735 ft 370 kts 161°
2026-05-05 13:51 -41.60194 146.70767 26372 ft 368 kts 161°
2026-05-05 13:52 -41.62503 146.72241 26008 ft 366 kts 161°
2026-05-05 13:52 -41.64799 146.73708 25635 ft 365 kts 161°
2026-05-05 13:52 -41.67086 146.75172 25258 ft 363 kts 161°
2026-05-05 13:52 -41.69327 146.76614 24890 ft 362 kts 161°
2026-05-05 13:53 -41.71595 146.78078 24497 ft 362 kts 161°
2026-05-05 13:53 -41.73857 146.79545 24120 ft 361 kts 161°
2026-05-05 13:53 -41.76122 146.81014 23725 ft 361 kts 161°
2026-05-05 13:53 -41.78382 146.82481 23292 ft 360 kts 161°
2026-05-05 13:54 -41.80632 146.83943 22898 ft 358 kts 161°
2026-05-05 13:54 -41.82868 146.85392 22497 ft 357 kts 161°
2026-05-05 13:54 -41.85111 146.86841 22104 ft 356 kts 161°
2026-05-05 13:54 -41.87319 146.88270 21709 ft 355 kts 161°
2026-05-05 13:55 -41.89542 146.89713 21318 ft 353 kts 161°
2026-05-05 13:55 -41.91749 146.91147 20922 ft 352 kts 161°
2026-05-05 13:55 -41.93967 146.92590 20526 ft 351 kts 161°
2026-05-05 13:55 -41.96138 146.94001 20133 ft 351 kts 161°
2026-05-05 13:56 -41.98340 146.95438 19743 ft 351 kts 160°
2026-05-05 13:56 -42.00531 146.96868 19355 ft 350 kts 160°
2026-05-05 13:56 -42.02734 146.98308 18956 ft 350 kts 160°
2026-05-05 13:56 -42.04929 146.99744 18560 ft 351 kts 160°
2026-05-05 13:57 -42.07126 147.01183 18138 ft 351 kts 160°
2026-05-05 13:57 -42.09319 147.02623 17731 ft 350 kts 160°
2026-05-05 13:57 -42.11506 147.04060 17339 ft 350 kts 160°
2026-05-05 13:57 -42.13691 147.05494 16945 ft 348 kts 160°
2026-05-05 13:58 -42.15861 147.06928 16547 ft 348 kts 158°
2026-05-05 13:58 -42.17901 147.08717 16158 ft 353 kts 145°
2026-05-05 13:58 -42.19733 147.10944 15752 ft 354 kts 141°
2026-05-05 13:58 -42.21548 147.13199 15350 ft 355 kts 141°
2026-05-05 13:59 -42.25161 147.17675 14551 ft 355 kts 141°
2026-05-05 13:59 -42.26979 147.19927 14147 ft 355 kts 141°
2026-05-05 14:00 -42.30613 147.24438 13314 ft 354 kts 141°
2026-05-05 14:00 -42.31885 147.25870 13031 ft 350 kts 149°
2026-05-05 14:00 -42.34630 147.28042 12531 ft 343 kts 156°
2026-05-05 14:00 -42.36719 147.29595 12155 ft 341 kts 156°
2026-05-05 14:01 -42.38793 147.31137 11791 ft 340 kts 156°
2026-05-05 14:01 -42.40860 147.32679 11417 ft 338 kts 156°
2026-05-05 14:01 -42.42915 147.34218 11048 ft 337 kts 156°
2026-05-05 14:01 -42.44955 147.35749 10683 ft 335 kts 156°
2026-05-05 14:02 -42.46983 147.37273 10389 ft 330 kts 156°
2026-05-05 14:02 -42.48958 147.38761 10218 ft 321 kts 156°
2026-05-05 14:02 -42.50902 147.40221 9873 ft 318 kts 156°
2026-05-05 14:02 -42.52831 147.41671 9452 ft 317 kts 156°
2026-05-05 14:03 -42.54753 147.43115 9116 ft 314 kts 156°
2026-05-05 14:03 -42.56649 147.44541 8566 ft 309 kts 156°
2026-05-05 14:03 -42.58513 147.45949 8216 ft 307 kts 154°
2026-05-05 14:03 -42.60243 147.47664 7872 ft 309 kts 144°
2026-05-05 14:04 -42.61884 147.49533 7536 ft 307 kts 144°
2026-05-05 14:04 -42.63514 147.51390 7201 ft 305 kts 144°
2026-05-05 14:04 -42.65141 147.53242 6874 ft 306 kts 144°
2026-05-05 14:04 -42.66771 147.55099 6542 ft 305 kts 144°
2026-05-05 14:05 -42.68371 147.56922 6413 ft 296 kts 144°
2026-05-05 14:05 -42.69923 147.58696 6270 ft 287 kts 144°
2026-05-05 14:05 -42.71438 147.60427 6043 ft 284 kts 144°
2026-05-05 14:05 -42.72969 147.62167 5734 ft 285 kts 144°
2026-05-05 14:06 -42.74480 147.63886 5500 ft 282 kts 144°
2026-05-05 14:06 -42.75982 147.65597 4866 ft 284 kts 144°
2026-05-05 14:06 -42.77454 147.67284 4523 ft 273 kts 144°
2026-05-05 14:06 -42.78857 147.68898 4382 ft 256 kts 144°
2026-05-05 14:07 -42.80211 147.70347 4247 ft 236 kts 159°
2026-05-05 14:07 -42.81694 147.70966 4161 ft 216 kts 187°
2026-05-05 14:07 -42.83123 147.70705 3933 ft 200 kts 211°
2026-05-05 14:07 -42.84336 147.69860 3718 ft 195 kts 218°
2026-05-05 14:08 -42.85532 147.68985 3493 ft 195 kts 218°
2026-05-05 14:08 -42.86723 147.68120 3273 ft 194 kts 217°
2026-05-05 14:08 -42.87912 147.67256 3055 ft 193 kts 217°
2026-05-05 14:08 -42.88714 147.66673 2913 ft 193 kts 217°
2026-05-05 14:09 -42.89887 147.65819 2695 ft 194 kts 217°
2026-05-05 14:09 -42.91029 147.64865 2473 ft 188 kts 234°
2026-05-05 14:09 -42.91575 147.63417 2313 ft 164 kts 268°
2026-05-05 14:09 -42.91413 147.61952 2051 ft 154 kts 299°
2026-05-05 14:10 -42.90759 147.60874 1806 ft 144 kts 315°
2026-05-05 14:10 -42.90066 147.59938 1598 ft 137 kts 315°
2026-05-05 14:10 -42.89397 147.59031 1380 ft 134 kts 315°
2026-05-05 14:10 -42.88729 147.58125 1175 ft 136 kts 316°
2026-05-05 14:11 -42.88058 147.57226 1026 ft 134 kts 317°
2026-05-05 14:11 -42.87390 147.56335 825 ft 134 kts 318°
2026-05-05 14:11 -42.86726 147.55444 654 ft 134 kts 319°
2026-05-05 14:11 -42.86052 147.54553 490 ft 135 kts 315°
2026-05-05 14:12 -42.85413 147.53621 317 ft 134 kts 316°
2026-05-05 14:12 -42.84758 147.52728 144 ft 133 kts 316°
2026-05-05 14:12 -42.84112 147.51848 32 ft 124 kts 316°
2026-05-05 14:12 -42.83613 147.51178 26 ft 76 kts 315°
2026-05-05 14:13 -42.83361 147.50838 22 ft 31 kts 315°
2026-05-05 14:13 -42.83333 147.50626 22 ft 15 kts 237°
2026-05-05 14:13 -42.83398 147.50551 21 ft 9 kts 195°
2026-05-05 14:13 -42.83457 147.50594 23 ft 10 kts 136°
2026-05-05 14:14 -42.83509 147.50664 24 ft 11 kts 135°
2026-05-05 14:14 -42.83576 147.50682 25 ft 12 kts 212°
2026-05-05 14:14 -42.83659 147.50650 22 ft 13 kts 217°
2026-05-05 14:14 -42.83692 147.50615 23 ft 0 kts 205°